Home   Weather   Renens   Past weeks

Flag for Switzerland Past Weather in Renens, Vaud, Switzerland — Yesterday and Last 2 Weeks

Now
37 °F

Chilly.


Feels Like: 37 °F
Forecast: 37 / 49 °F
Wind: 1 mph from Southeast

Location: Aigle

Current Time: Feb 23, 2017 at 1:45:20 am

Latest Report: Feb 23, 2017 at 12:00 am


Visibility: N/A

Pressure: 30.10 "Hg

Humidity: 93%

Dew Point: 35 °F

Location of RenensLocation

Past Weather in Renens — Graph

°F

Renens Temperature Yesterday

Maximum temperature yesterday: 56 °F (at 4:00 pm)
Minimum temperature yesterday: 35 °F (at 8:00 am)
Average temperature yesterday: 45 °F

High & Low Weather Summary for the Past Weeks

 TemperatureHumidityPressure
High56 °F (Feb 22, 4:00 pm)100% (Feb 17, 10:00 pm)30.65 "Hg (Feb 17, 10:00 pm)
Low29 °F (Feb 19, 4:00 am)39% (Feb 12, 12:00 am)30.03 "Hg (Feb 8, 5:00 am)
Average39 °F82%30.28 "Hg
* Reported Feb 8 12:00 am — Feb 23 12:00 am, Renens, Weather by CustomWeather, © 2017

Note: Actual official high and low records may vary slightly from our data, if they occured in-between our weather recording intervals... More about our weather records

Advertising

Renens Weather History for the Previous 24 Hours

Scroll right to see more
 ConditionsComfort  
Time TempWeatherWind HumidityBarometerVisibility
12:00 am
Thu, Feb 23
37 °FChilly.1 mph93%30.10 "HgN/A
11:00 pm
Wed, Feb 22
37 °FChilly.1 mph96%30.11 "HgN/A
10:00 pm41 °FQuite cool.1 mph90%30.11 "HgN/A
9:00 pm43 °FQuite cool.1 mph88%30.10 "HgN/A
8:00 pm43 °FQuite cool.2 mph93%30.11 "HgN/A
7:00 pm46 °FPassing clouds.2 mph90%30.10 "Hg16 mi
6:00 pm51 °FCool.No wind74%30.08 "HgN/A
5:00 pm53 °FCool.3 mph64%30.07 "HgN/A
4:00 pm56 °FScattered clouds.10 mph61%30.07 "Hg19 mi
3:00 pm56 °FRefreshingly cool.7 mph58%30.08 "HgN/A
2:00 pm55 °FCool.8 mph60%30.11 "HgN/A
1:00 pm55 °FScattered clouds.12 mph67%30.12 "Hg16 mi
12:00 pm54 °FCool.7 mph65%30.14 "HgN/A
11:00 am52 °FCool.2 mph74%30.16 "HgN/A
10:00 am46 °FPartly sunny.1 mph83%30.19 "Hg12 mi
9:00 am41 °FQuite cool.1 mph92%30.20 "HgN/A
8:00 am35 °FChilly.2 mph97%30.20 "HgN/A
7:00 am36 °FPassing clouds.2 mph98%30.20 "Hg19 mi
6:00 am39 °FChilly.No wind97%30.18 "HgN/A
5:00 am40 °FChilly.2 mph94%30.19 "HgN/A
4:00 am38 °FClear.2 mph97%30.20 "Hg14 mi
3:00 am40 °FQuite cool.2 mph94%30.19 "HgN/A
2:00 am42 °FQuite cool.2 mph94%30.21 "HgN/A
1:00 am42 °FQuite cool.2 mph93%30.22 "HgN/A
Weather by CustomWeather, © 2017

See weather overviewHow to use our weather pages